Terminal Aerodrome Forecast
Issued by NWS

Home | Current Version | Previous Version | Text Only | Print | Product List | Glossary On
Versions: 1 2 3 4 5 6 7 8 9 10 11 12 13 14 15 16 17 18 19 20 21 22 23 24 25
000
FTUS41 KBGM 241400 AAA
TAFRME
TAF AMD
KRME 241401Z 2414/2512 31007KT P6SM SCT020 BKN050
      TEMPO 2414/2415 BKN018
     FM241800 30010KT P6SM SCT100
     FM242300 29004KT P6SM SKC
     FM250900 VRB03KT P6SM FEW010 SCT040=

USA.gov is the U.S. government's official web portal to all federal, state and local government web resources and services.